Weather History for KCAE - January, 2014

Change the Weather History Date:

Monday, January 6, 2014

  Actual Average Record
Temperature  
Mean Temperature 40 °F 44 °F  
Max Temperature 59 °F 55 °F 78 °F (1950)
Min Temperature 20 °F 33 °F 10 °F (1924)
Degree Days  
Heating Degree Days 25 21  
Month to date heating degree days 152 126  
Since 1 July heating degree days 1024 1136  
Cooling Degree Days 0 0  
Month to date cooling degree days 0 0  
Year to date cooling degree days 0 0  
Moisture  
Dew Point 32 °F    
Average Humidity 62    
Maximum Humidity 93    
Minimum Humidity 30    
Precipitation  
Precipitation 0.05 in 0.12 in 1.61 in (1915)
Month to date precipitation 0.29 0.67  
Year to date precipitation 0.29 0.67  
Sea Level Pressure  
Sea Level Pressure 29.92 in    
Wind  
Wind Speed 18 mph (WSW)    
Max Wind Speed 31 mph    
Max Gust Speed 38 mph    
Visibility 9 miles    
Events Rain    
T = Trace of Precipitation, MM = Missing Value Source: NWS Daily Summary

Daily Weather History Graph

Daily Weather History Graph

Search for Another Location

Airport or City:

Trip Planner

Search our weather history database for the weather conditions in past years. The results will help you decide how hot, cold, wet, or windy it might be!

Date:

Astronomy

Jan. 06, 2014 Rise Set
Actual Time 7:30 AM EST 5:30 PM EST
Civil Twilight 7:02 AM EST 5:58 PM EST
Nautical Twilight 6:31 AM EST 6:29 PM EST
Astronomical Twilight 6:01 AM EST 6:59 PM EST
Moon 11:02 AM EST (1/6) 11:43 PM EST (1/6)
Length of Visible Light 10h 55m
Length of Day
10h 00m
Waxing Crescent, 34% of the Moon is Illuminated
Jan 6
Waxing Crescent
Jan 7
First Quarter
Jan 15
Full
Jan 24
Last Quarter
Jan 30
New

Hourly Weather History & Observations

Time (EST) Temp. Windchill Dew Point Humidity Pressure Visibility Wind Dir Wind Speed Gust Speed Precip Events Conditions
12:41 AM 53.6 °F - 53.6 °F 100% 29.78 in 5.0 mi South 6.9 mph - 0.03 in Rain Light Rain
12:56 AM 55.0 °F - 54.0 °F 96% 29.78 in 6.0 mi SSW 4.6 mph - 0.03 in Rain Light Rain
1:48 AM 55.4 °F - 53.6 °F 94% 29.75 in 7.0 mi SSW 11.5 mph - 0.00 in   Overcast
1:56 AM 55.9 °F - 54.0 °F 93% 29.75 in 7.0 mi SSW 8.1 mph - 0.00 in   Overcast
2:56 AM 57.0 °F - 55.0 °F 93% 29.74 in 6.0 mi SSW 12.7 mph 18.4 mph N/A   Overcast
3:56 AM 59.0 °F - 55.9 °F 90% 29.73 in 8.0 mi SW 11.5 mph - N/A   Overcast
4:05 AM 59.0 °F - 55.4 °F 88% 29.74 in 9.0 mi SW 9.2 mph - N/A   Overcast
4:56 AM 59.0 °F - 57.0 °F 93% 29.70 in 9.0 mi SW 8.1 mph - 0.00 in   Overcast
5:44 AM 55.4 °F - 50.0 °F 82% 29.75 in 10.0 mi WNW 17.3 mph 23.0 mph 0.00 in Rain Light Rain
5:52 AM 53.6 °F - 48.2 °F 82% 29.75 in 10.0 mi West 16.1 mph 23.0 mph 0.00 in   Overcast
5:56 AM 53.1 °F - 46.9 °F 80% 29.75 in 10.0 mi West 21.9 mph 27.6 mph 0.00 in   Overcast
6:56 AM 48.9 °F - 44.1 °F 83% 29.78 in 8.0 mi WSW 12.7 mph - 0.01 in Rain Light Rain
7:03 AM 48.2 °F - 44.6 °F 87% 29.79 in 10.0 mi WSW 13.8 mph - 0.00 in Rain Light Rain
7:56 AM 48.0 °F - 45.0 °F 89% 29.81 in 10.0 mi WSW 12.7 mph - 0.01 in   Overcast
8:56 AM 44.1 °F 36.2 °F 37.0 °F 76% 29.87 in 10.0 mi West 18.4 mph 32.2 mph N/A   Scattered Clouds
9:56 AM 44.1 °F 36.2 °F 33.1 °F 65% 29.91 in 10.0 mi West 18.4 mph 27.6 mph N/A   Scattered Clouds
10:56 AM 44.1 °F 35.0 °F 30.0 °F 58% 29.94 in 10.0 mi West 24.2 mph 33.4 mph N/A   Scattered Clouds
11:56 AM 45.0 °F 36.9 °F 28.0 °F 52% 29.95 in 10.0 mi West 20.7 mph 27.6 mph N/A   Scattered Clouds
12:56 PM 44.1 °F 36.2 °F 24.1 °F 45% 29.95 in 10.0 mi WNW 18.4 mph 33.4 mph N/A   Mostly Cloudy
1:56 PM 46.0 °F 37.2 °F 19.0 °F 34% 29.95 in 10.0 mi West 26.5 mph 38.0 mph N/A   Scattered Clouds
2:56 PM 46.0 °F 38.5 °F 17.1 °F 31% 29.97 in 10.0 mi West 19.6 mph 29.9 mph N/A   Scattered Clouds
3:56 PM 42.1 °F 32.3 °F 14.0 °F 32% 30.01 in 10.0 mi West 24.2 mph 36.8 mph N/A   Scattered Clouds
4:56 PM 39.0 °F 27.4 °F 12.0 °F 33% 30.04 in 10.0 mi West 28.8 mph 36.8 mph N/A   Scattered Clouds
5:56 PM 34.0 °F 21.8 °F 9.0 °F 35% 30.08 in 10.0 mi West 23.0 mph 34.5 mph N/A   Scattered Clouds
6:56 PM 30.9 °F 17.2 °F 7.0 °F 37% 30.13 in 10.0 mi West 25.3 mph 34.5 mph N/A   Scattered Clouds
7:56 PM 28.0 °F 13.3 °F 7.0 °F 41% 30.19 in 10.0 mi West 25.3 mph 32.2 mph N/A   Partly Cloudy
8:56 PM 26.1 °F 12.3 °F 1.9 °F 35% 30.25 in 10.0 mi WNW 19.6 mph 32.2 mph N/A   Scattered Clouds
9:56 PM 23.0 °F 6.9 °F -0.0 °F 37% 30.28 in 10.0 mi West 24.2 mph 27.6 mph N/A   Clear
10:56 PM 21.0 °F 7.6 °F -0.0 °F 40% 30.30 in 10.0 mi West 15.0 mph - N/A   Clear
11:56 PM 19.9 °F 6.2 °F -0.9 °F 40% 30.31 in 10.0 mi West 15.0 mph - N/A   Clear